Regional Weather Roundup
Issued by NWS

Home | Current Version | Previous Version | Text Only | Print | Product List | Glossary Off
Versions: 1 2 3 4 5 6 7 8 9 10 11 12 13 14 15 16 17 18 19 20 21 22 23 24 25 26 27 28 29 30 31 32 33 34 35 36 37 38 39 40 41 42 43 44 45 46 47 48 49 50

000
ASUS45 KBOI 301110
RWRID

IDAHO REGIONAL WEATHER ROUNDUP
NATIONAL WEATHER SERVICE BOISE ID
500 AM MDT SUN AUG 30 2015

NOTE: "FAIR" INDICATES FEW OR NO CLOUDS BELOW 12000 FEET
WITH NO SIGNIFICANT WEATHER AND/OR OBSTRUCTIONS TO VISIBILITY

IDZ012-014-301200-
SOUTHWEST IDAHO


CITY           SKY/WX    TMP DP  RH WIND       PRES   REMARKS
BOISE          CLEAR     63  43  48 W3        29.91R
CALDWELL       CLEAR     57  37  47 SW5       29.92R
MOUNTAIN HOME  CLEAR     65  43  44 NW14      29.90R
$$

IDZ016-017-301200-
SOUTHCENTRAL IDAHO


CITY           SKY/WX    TMP DP  RH WIND       PRES   REMARKS
BURLEY         MOCLDY    60  50  69 S9        29.97S
JEROME         PTCLDY    62  47  57 SE6       29.96S
TWIN FALLS     PTCLDY    61  44  53 S9        29.96F
$$

IDZ019>023-301200-
SOUTHEAST IDAHO


CITY           SKY/WX    TMP DP  RH WIND       PRES   REMARKS
IDAHO FALLS    PTCLDY    58  55  90 SW12      29.97R
POCATELLO      CLEAR     62  50  64 SW10      30.00R
REXBURG        PTCLDY    61  52  72 S10       29.96R
$$

IDZ006-010-011-018-031-032-301200-
CENTRAL IDAHO MOUNTAINS


CITY           SKY/WX    TMP DP  RH WIND       PRES   REMARKS
MCCALL         PTCLDY    51  50  96 CALM      29.95S
HAILEY         CLOUDY    68  41  37 S6        30.05R
STANLEY          N/A     51  46  83 SE6       30.06S
SALMON         CLOUDY    66  46  48 S14G29    29.88S
CHALLIS        CLOUDY    61  47  59 SW12G18   29.97F
$$

IDZ002-004-006-007-026-301200-
NORTHERN IDAHO


CITY           SKY/WX    TMP DP  RH WIND       PRES   REMARKS
LEWISTON       NOT AVBL
LOWELL           N/A     59  57  93 CALM      29.90S
COEUR D`ALENE  PTCLDY    55  48  76 S6        29.86R
MULLAN PASS    CLOUDY    47  39  74 VRB6      29.98R
$$


USA.gov is the U.S. government's official web portal to all federal, state and local government web resources and services.